Air Resources Laboratory banner image
Air Resources Laboratory web site National Oceanic and Atmospheric Administration (NOAA)

wa roundup


Office: SEW

ASUS46 KSEW 170810
RWRWA

WASHINGTON REGIONAL WEATHER ROUNDUP
NATIONAL WEATHER SERVICE SEATTLE WA
100 AM PDT WED AUG 17 2022

NOTE:"FAIR" INDICATES FEW OR NO CLOUDS BELOW 12,000 FEET WITH NO
SIGNIFICANT WEATHER AND/OR OBSTRUCTIONS TO VISIBILITY.

WAZ507-509-555>559-170900-
SEATTLE, TACOMA, EVERETT, AND VICINITY

CITY           SKY/WX    TMP DP  RH WIND       PRES   REMARKS
EVERETT        CLEAR     62  56  80 N3        30.04S
BOEING FIELD   CLEAR     67  57  70 CALM      30.03R
RENTON         CLEAR     69  57  65 N7        30.01R
SEATAC AIRPORT CLEAR     68  54  60 NE8       30.02S
JBLM-MCCHORD   CLEAR     58  53  82 CALM      30.02R
PUYALLUP       FAIR      61  55  82 CALM      30.03S
BREMERTON      CLEAR     57  53  86 CALM      30.03S
JBLM-FT LEWIS  CLEAR     62  49  62 SE3       30.00R
TACOMA NARROWS CLEAR     67  54  63 NE3       30.02R
$$

WAZ001-503-506-510-514-515-170900-
NORTH INTERIOR

CITY           SKY/WX    TMP DP  RH WIND       PRES   REMARKS
BELLINGHAM     CLEAR     60  58  92 CALM      30.02R
FRIDAY HARBOR  CLEAR     54  52  93 CALM      30.03S
EASTSOUND      CLEAR     61  57  88 S3        30.01S
PORT ANGELES   CLEAR     58  55  90 CALM      30.06R
EDIZ HOOK      FAIR      55  55 100 W8        30.05R
PORT TOWNSEND  FAIR      59  57  94 CALM      30.01S
NAS WHIDBEY    NOT AVBL
ARLINGTON      CLEAR     58  54  86 CALM      30.04R
BURLINGTON     CLEAR     57  57 100 CALM      30.03S
$$

WAZ020-022-039-040-504-511-512-170900-
SOUTHWEST INTERIOR

CITY           SKY/WX    TMP DP  RH WIND       PRES   REMARKS
SHELTON        CLEAR     58  54  86 CALM      30.00R
OLYMPIA        CLEAR     59  51  75 NE3       30.02R
CHEHALIS       NOT AVBL
KELSO          CLEAR     66  59  78 N3        29.98S
VANCOUVER      CLEAR     73  56  54 VRB3      29.94R
SCAPPOOSE, OR  CLEAR     74  56  53 NW8       29.94R
PORTLAND, OR   CLEAR     73  58  59 W3        29.94R
$$

WAZ021-516-517-170900-
WASHINGTON COAST

CITY           SKY/WX    TMP DP  RH WIND       PRES   REMARKS
FORKS          PTCLDY    60  59  96 CALM      30.04S
HOQUIAM        CLEAR     63  59  87 NW3       30.02S
ASTORIA, OR    CLOUDY    60  58  92 CALM      29.99S
$$

WAZ019-023-024-040-567>569-170900-
CASCADE MOUNTAINS AND COLUMBIA GORGE

CITY           SKY/WX    TMP DP  RH WIND       PRES   REMARKS
STAMPEDE PASS  CLEAR     65  52  62 CALM      30.16R
TROUTDALE, OR  CLEAR     67  59  75 CALM      29.94R
HOOD RIVER, OR SUNNY     64  55  72 S5        29.94R
THE DALLES, OR CLEAR     73  57  57 SE5       29.91R
$$

WAZ026-027-041>044-520-521-170900-
EAST SLOPES

CITY           SKY/WX    TMP DP  RH WIND       PRES   REMARKS
OMAK           CLEAR     70  45  40 N9        29.99R
WENATCHEE      CLEAR     79  52  38 N12       29.97R
ELLENSBURG     CLEAR     66  53  63 CALM      30.01R
YAKIMA         CLEAR     66  50  56 W6        29.96R
SUNNYSIDE ARPT SUNNY     62  57  84 CALM      29.93R
YAKIMA TC      NOT AVBL
$$

WAZ028-034-035-170900-
COLUMBIA BASIN

CITY           SKY/WX    TMP DP  RH WIND       PRES   REMARKS
EPHRATA        CLEAR     80  44  27 NW9       29.94R
MOSES LAKE     CLEAR     69  47  45 NE6       29.95R
PASCO          CLEAR     65  58  78 CALM      29.91R
RICHLAND ARPT  SUNNY     71  53  52 CALM      29.91R
HERMISTON, OR  CLEAR     64  51  62 CALM      29.91R
$$

WAZ036>038-170900-
NORTHEAST WASHINGTON

CITY           SKY/WX    TMP DP  RH WIND       PRES   REMARKS
SPOKANE GEIGER CLEAR     75  44  33 NE3       30.03R
SPOKANE FELTS  CLEAR     66  49  54 CALM      30.02R
FAIRCHILD AFB  CLEAR     71  44  36 E5        30.02R
COEURDALENE,ID CLEAR     63  48  58 CALM      30.05R
DEER PARK      CLEAR     60  46  59 CALM      30.03R
$$

WAZ029>033-170900-
SOUTHEAST WASHINGTON

CITY           SKY/WX    TMP DP  RH WIND       PRES   REMARKS
PULLMAN        CLEAR     57  40  52 CALM      30.04S
LEWISTON, ID   CLEAR     76  38  25 CALM      29.96R
WALLA WALLA    CLEAR     69  46  43 E10       29.94R
PENDLETON, OR  CLEAR     72  45  37 E10       29.96R
$$


ASUS46 KSEW 170820
RWRWA

WASHINGTON REGIONAL WEATHER ROUNDUP
NATIONAL WEATHER SERVICE SEATTLE WA
100 AM PDT WED AUG 17 2022

NOTE:"FAIR" INDICATES FEW OR NO CLOUDS BELOW 12,000 FEET WITH NO
SIGNIFICANT WEATHER AND/OR OBSTRUCTIONS TO VISIBILITY.

WAZ507-509-555>559-170900-
SEATTLE, TACOMA, EVERETT, AND VICINITY

CITY           SKY/WX    TMP DP  RH WIND       PRES   REMARKS
EVERETT        CLEAR     62  56  80 N3        30.04S
BOEING FIELD   CLEAR     67  57  70 CALM      30.03R
RENTON         CLEAR     69  57  65 N7        30.01R
SEATAC AIRPORT CLEAR     68  54  60 NE8       30.02S
JBLM-MCCHORD   CLEAR     58  53  82 CALM      30.02R
PUYALLUP       FAIR      61  55  82 CALM      30.03S
BREMERTON      CLEAR     57  53  86 CALM      30.03S
JBLM-FT LEWIS  CLEAR     62  49  62 SE3       30.00R
TACOMA NARROWS CLEAR     67  54  63 NE3       30.02R
$$

WAZ001-503-506-510-514-515-170900-
NORTH INTERIOR

CITY           SKY/WX    TMP DP  RH WIND       PRES   REMARKS
BELLINGHAM     CLEAR     60  58  92 CALM      30.02R
FRIDAY HARBOR  CLEAR     54  52  93 CALM      30.03S
EASTSOUND      CLEAR     59  55  88 S3        30.02R
PORT ANGELES   CLEAR     58  55  90 CALM      30.06R
EDIZ HOOK      FAIR      55  55 100 W8        30.05R
PORT TOWNSEND  FAIR      59  57  94 CALM      30.02R
NAS WHIDBEY    NOT AVBL
ARLINGTON      CLEAR     58  54  86 CALM      30.04R
BURLINGTON     CLEAR     57  57 100 CALM      30.03S
$$

WAZ020-022-039-040-504-511-512-170900-
SOUTHWEST INTERIOR

CITY           SKY/WX    TMP DP  RH WIND       PRES   REMARKS
SHELTON        CLEAR     58  54  86 CALM      30.00R
OLYMPIA        CLEAR     59  51  75 NE3       30.02R
CHEHALIS       NOT AVBL
KELSO          CLEAR     66  59  78 N3        29.98S
VANCOUVER      CLEAR     73  56  54 VRB3      29.94R
SCAPPOOSE, OR  CLEAR     74  56  53 NW8       29.94R
PORTLAND, OR   CLEAR     73  58  59 W3        29.94R
$$

WAZ021-516-517-170900-
WASHINGTON COAST

CITY           SKY/WX    TMP DP  RH WIND       PRES   REMARKS
FORKS          PTCLDY    60  59  96 CALM      30.04S
HOQUIAM        CLEAR     63  59  87 NW3       30.02S
ASTORIA, OR    CLOUDY    60  58  92 CALM      29.99S
$$

WAZ019-023-024-040-567>569-170900-
CASCADE MOUNTAINS AND COLUMBIA GORGE

CITY           SKY/WX    TMP DP  RH WIND       PRES   REMARKS
STAMPEDE PASS  CLEAR     65  52  62 CALM      30.16R
TROUTDALE, OR  CLEAR     67  59  75 CALM      29.94R
HOOD RIVER, OR SUNNY     64  55  72 S3        29.95R
THE DALLES, OR CLEAR     73  57  57 SE5       29.91R
$$

WAZ026-027-041>044-520-521-170900-
EAST SLOPES

CITY           SKY/WX    TMP DP  RH WIND       PRES   REMARKS
OMAK           CLEAR     70  45  40 N9        29.99R
WENATCHEE      CLEAR     79  52  38 N12       29.97R
ELLENSBURG     CLEAR     66  53  63 CALM      30.01R
YAKIMA         CLEAR     66  50  56 W6        29.96R
SUNNYSIDE ARPT SUNNY     61  57  88 CALM      29.93R
YAKIMA TC      NOT AVBL
$$

WAZ028-034-035-170900-
COLUMBIA BASIN

CITY           SKY/WX    TMP DP  RH WIND       PRES   REMARKS
EPHRATA        CLEAR     80  44  27 NW9       29.94R
MOSES LAKE     CLEAR     69  47  45 NE6       29.95R
PASCO          CLEAR     65  58  78 CALM      29.91R
RICHLAND ARPT  SUNNY     70  53  56 CALM      29.91R
HERMISTON, OR  CLEAR     64  51  62 CALM      29.91R
$$

WAZ036>038-170900-
NORTHEAST WASHINGTON

CITY           SKY/WX    TMP DP  RH WIND       PRES   REMARKS
SPOKANE GEIGER CLEAR     75  44  33 NE3       30.03R
SPOKANE FELTS  CLEAR     66  49  54 CALM      30.02R
FAIRCHILD AFB  CLEAR     71  44  36 E5        30.02R
COEURDALENE,ID CLEAR     63  48  58 CALM      30.05R
DEER PARK      CLEAR     60  46  59 CALM      30.03R
$$

WAZ029>033-170900-
SOUTHEAST WASHINGTON

CITY           SKY/WX    TMP DP  RH WIND       PRES   REMARKS
PULLMAN        CLEAR     57  40  52 CALM      30.04S
LEWISTON, ID   CLEAR     76  38  25 CALM      29.96R
WALLA WALLA    CLEAR     69  46  43 E10       29.94R
PENDLETON, OR  CLEAR     72  45  37 E10       29.96R
$$